Showing default

ICEYE-X2, 43800

Orbit data source: Space-Track

ICEYE-X2, 43800 is a payload satellite owned by ICEYE (FI) in SSO that was launched on Mon, 03 Dec 2018 UTC via an FALCON 9 launch vehicle from the Air Force Western Test Range (AFWTR). Payload-class satellites include a variety of spacecraft equipped with specific instruments for various scientific and technological missions. These include communications satellites like Starlink; space stations such as the ISS; scientific satellites like the Hubble; Earth observation satellites from companies like Planet Labs, Umbra, and HawkEye 360; GPS; miniature CubeSats for education and research; and military/defense satellites.

Loading next visibility...
Identifier
43800, 2018-099AU
Orbit
SSO
Country
Flag of FIFI / FIN
Related business
Manufacturer
ICEYE
Mission
Operational Commercial Radar Imaging
Bus & Motor
ICEYE, Unknown motor
Mass
80 kg wet, 80 kg dry
Launch date (UTC)
2018-12-03 (8 years ago)
Launch vehicle
FALCON 9
Launch site
Air Force Western Test Range (AFWTR)
Object type
Payload
Rocket body
Debris
Shape & HBR
Box + 1 Pan, 2.4 m
Radar Cross Section
1.837 m², Medium (>0.1 m² and < 1m²)

Expand to show TLE details & history
Last TLE update: 14 hours ago

TLE from 14 hours ago
0 ICEYE-X2
1 43800U 18099AU  26235.63775317  .00009065  00000-0  44262-3 0  9990
2 43800  97.4305 288.3015 0011721  71.3918 288.8588 15.18432720423057
Epoch: 2026-08-23T15:18Z
TLE epoch observation values (Epoch: 2026-08-23T15:18:21.873Z)
Latitude
-0.00006°
Longitude
86.77943°
Altitude
511.062 km
Speed
7.61 km/s
True Right ascension
19h 13m 12s
True Declination
0° 00' 00"
Sunlit
Object was in full shadow at epoch
Visualization orbit readout
Latitude
Unknown
Longitude
Unknown
Altitude
Unknown
Speed
Unknown
Apparent Right ascension
Unknown
Apparent Declination
Unknown
Sunlit
N/A
Visualization observer readout
Local Sidereal Time
20:02:25
Azimuth
Unknown
Elevation
Unknown
Doppler factor
Unknown
Orbital elements
Apogee altitude
515.616 km
Perigee altitude
499.475 km
Semi-major axis
6,885.683 km
Eccentricity
0.00117
Inclination
97.4305°
RAAN
288.3015°
Arg. of periapsis
71.3918°
True anomaly
288.73164°
Mean anomaly
288.8588°
Eccentric anomaly
288.79522°
Mean motion
3.79859 °/min
Orbital period
94.77 mins
BSTAR
0.00044262
Loading maneuver chart data...
Computing Atmospheric mass density...
Loading historical data...
Loading historical data...
Loading historical data...
Loading historical data...
Loading historical data...
Loading historical data...
Loading historical data...

Documentation

Showing up to 5 results
|